Location: Unspecified
(42.3650°N, 71.1030°W)
Time: 16:49:16
(UTC+00:00)

Tiros 1 - Pass Details

Date: 30 June 2024
Orbit: 624 x 656 km, 48.4° (Epoch: 13 July)

Event Time Altitude Azimuth Distance (km) Brightness Sun altitude
Rises 03:19:13 0° 264° (W) 2,898 10.7 -21.3°
Reaches altitude 10° 03:21:36 10° 270° (W) 1,992 9.9 -21.5°
Maximum altitude 03:26:02 48° 346° (NNW) 821 8.0 -21.8°
Drops below altitude 10° 03:30:29 10° 61° (ENE) 2,001 9.8 -22.1°
Sets 03:32:53 0° 67° (ENE) 2,912 10.6 -22.2°
